Wind_Speed
8 8 8 8 9 11 12 12 12 13 13 14 14 14 14 13 13 12 12 12 11 11 11 10 10 10 10 10 10 10 10 10 10 9 9 8 8 9 9 9 10 10
10 9 9 9 9 10 11 12 12 12 12 12 13 13 14 14 13 13 13 13 12 12 12 11 11 11 10 10 9 9 9 9 9 9 8 9 9 10 10 11 12 12
12 11 11 11 10 9 10 11 11 12 12 12 12 12 12 13 13 13 13 13 13 12 12 12 11 11 10 10 9 9 8 8 8 8 9 9 10 10 10 11 12 12
14 13 12 11 10 9 10 11 12 12 11 11 11 12 12 12 12 12 12 13 13 13 12 12 11 11 10 10 10 9 9 9 9 9 9 9 10 10 10 11 11 11
15 14 13 12 11 11 11 11 12 12 12 11 12 12 12 11 12 12 12 12 12 12 12 12 12 11 11 10 10 10 9 9 9 9 9 9 10 11 11 12 12 12
16 16 15 14 13 13 12 12 11 11 12 12 12 12 12 12 12 12 12 12 12 12 12 12 12 12 12 11 11 11 10 10 10 10 10 10 10 11 11 12 12 12
16 16 16 15 15 14 14 13 13 12 12 12 13 13 13 13 13 13 13 13 12 12 12 12 12 12 12 12 12 12 11 11 11 10 10 10 10 10 11 11 12 12
16 16 15 15 15 15 15 15 15 14 13 13 13 13 13 13 13 14 14 13 13 12 13 13 13 13 13 13 12 12 12 12 12 12 11 11 10 10 10 11 11 12
18 17 16 16 16 16 17 17 16 15 15 14 13 12 13 13 13 14 14 14 13 13 13 13 13 13 13 13 13 13 13 13 13 13 13 12 11 10 10 11 11 11
20 19 19 19 19 19 19 19 18 17 16 15 14 13 13 13 13 13 14 14 14 14 13 13 13 13 13 13 13 13 14 14 14 14 13 13 12 12 12 12 11 11
22 21 21 22 22 22 22 22 20 19 18 17 16 15 15 14 14 15 15 15 14 14 14 14 14 13 13 13 13 13 14 14 14 14 14 14 14 13 13 13 13 12
25 24 24 24 24 23 22 22 21 21 20 20 19 18 18 17 17 17 17 17 16 16 15 15 15 15 14 14 14 14 14 14 14 15 15 15 15 15 15 15 15 14
27 28 27 26 24 23 22 21 20 21 21 21 21 21 20 20 20 20 20 20 19 18 18 17 17 16 16 15 15 15 14 14 14 15 15 15 16 16 17 17 16 16
28 28 28 27 25 23 22 21 21 21 22 23 23 23 22 22 22 22 22 22 21 21 20 19 19 19 19 18 18 17 16 15 15 15 15 15 16 16 17 18 18 17
29 27 27 27 26 25 24 24 23 23 24 24 23 23 23 23 23 24 24 24 24 23 23 22 22 22 22 21 20 19 18 17 16 15 15 15 16 16 17 18 18 18
31 29 27 27 27 27 27 26 25 25 25 25 24 23 24 24 24 24 23 24 24 24 25 24 24 25 24 23 22 21 20 19 18 17 16 16 16 16 17 17 17 17
33 31 30 30 30 30 29 28 28 28 28 27 26 25 25 25 24 23 23 23 24 24 24 24 25 26 26 24 23 22 21 20 19 18 18 17 17 17 17 17 18 18
34 34 32 32 32 31 30 29 29 29 29 29 28 27 26 25 24 23 23 24 24 24 24 24 25 26 26 26 25 24 23 22 21 20 20 19 19 19 19 19 19 19
33 35 34 33 33 32 31 30 30 29 29 29 29 28 27 26 25 25 25 25 25 25 25 26 26 26 26 26 26 26 25 24 23 22 22 22 21 21 22 21 21 21
29 32 33 33 33 32 31 30 30 29 29 30 30 29 29 28 28 28 27 27 27 27 27 26 27 27 27 27 27 28 27 26 24 24 23 23 23 24 24 24 23 22
24 27 29 30 31 32 32 32 31 30 29 30 30 29 29 30 30 29 29 29 29 29 28 28 28 28 28 28 28 28 28 28 27 25 24 24 25 25 25 25 24 23
20 23 25 28 30 31 31 32 32 31 31 31 31 30 31 32 32 31 30 30 30 30 30 30 30 30 29 29 28 29 29 29 28 27 26 25 25 25 25 25 25 25
18 19 21 25 28 30 31 32 33 33 33 34 33 33 34 35 35 33 31 31 31 30 30 31 31 31 31 31 30 29 29 29 27 26 25 25 25 25 25 25 26 26
22 21 20 21 23 24 25 29 33 34 35 36 36 34 34 35 35 34 33 33 34 34 33 33 33 32 33 34 33 30 29 29 28 26 25 24 24 24 24 25 26 27
24 24 23 23 22 20 19 21 24 26 27 29 31 32 33 34 34 33 33 34 36 36 35 35 35 34 33 35 35 32 28 28 29 28 26 25 25 25 25 25 26 27
24 23 22 24 25 24 23 22 21 19 18 20 23 24 26 28 29 31 31 32 33 35 36 36 35 34 33 33 34 32 29 29 31 30 27 27 27 27 27 27 27 28
Wind_Direction
190 189 188 190 193 191 186 185 185 182 182 186 186 185 186 185 183 182 180 182 186 185 186 190 191 193 195 197 198 197 197 198 197 197 195 193 194 191 189 191 194 195
201 199 194 195 201 206 200 194 193 188 184 187 188 188 189 189 188 187 186 187 190 190 191 194 197 199 202 205 208 210 211 212 211 210 205 201 202 201 198 197 197 196
206 208 206 202 200 206 210 207 204 198 193 191 193 194 193 192 192 191 191 191 192 192 193 196 199 201 203 207 211 216 220 223 223 221 217 213 213 211 209 207 206 202
207 210 211 210 205 204 208 211 213 210 205 200 200 202 201 198 197 196 196 197 197 196 196 198 200 201 203 206 209 213 217 223 226 227 226 224 222 221 219 218 216 212
207 210 211 213 213 212 209 209 213 216 215 212 210 210 209 207 204 203 204 204 204 204 202 202 203 203 204 206 208 210 213 218 223 226 227 227 226 225 225 224 223 221
206 209 211 212 214 218 217 213 212 214 217 218 218 217 217 216 212 211 211 210 210 211 211 210 210 209 208 208 210 211 212 215 219 222 224 224 226 228 230 230 230 229
209 210 211 212 214 217 220 220 217 214 213 217 219 221 222 222 220 218 218 217 216 215 217 217 217 218 216 213 213 213 214 216 218 221 223 224 226 228 232 235 237 237
210 211 213 214 217 219 220 222 222 219 215 214 216 220 223 225 225 225 225 225 224 223 223 222 221 222 222 220 219 218 218 219 220 222 224 227 228 230 233 236 240 242
210 208 210 212 216 219 220 221 223 223 222 219 217 218 221 223 225 227 229 231 231 231 232 231 229 227 227 226 225 225 224 224 225 225 226 228 230 232 235 238 240 242
216 211 209 209 212 215 216 217 218 220 223 223 220 219 221 223 224 225 227 229 231 234 236 238 238 238 236 235 233 232 232 232 232 232 232 232 232 234 236 240 242 243
223 219 214 212 214 215 215 215 214 214 218 221 222 221 221 222 225 226 226 226 227 230 235 238 240 242 243 243 242 241 239 239 239 239 239 239 239 238 239 241 244 245
226 226 222 219 218 218 219 219 217 215 215 217 219 220 220 221 224 227 228 227 226 227 230 233 236 240 242 244 245 245 243 242 242 242 244 245 245 244 244 244 245 246
224 228 229 227 224 223 224 225 226 225 223 221 220 219 219 219 221 226 229 230 229 228 229 230 233 237 240 242 244 245 245 244 243 243 244 246 248 248 248 248 248 248
223 227 232 233 232 229 227 226 227 228 229 228 225 222 220 220 220 224 228 231 232 232 232 231 232 235 237 239 240 242 243 243 244 245 246 247 249 250 251 251 251 251
226 227 230 235 235 232 230 228 226 227 229 229 229 227 227 226 225 225 228 232 234 236 236 234 233 235 236 237 239 240 241 241 242 243 245 248 250 252 253 254 255 254
232 230 229 233 237 235 232 229 229 229 230 230 230 230 231 232 232 230 230 233 236 239 241 241 239 239 240 240 241 243 243 243 243 242 242 245 248 252 256 258 259 259
234 233 230 231 236 237 235 232 231 231 231 232 231 230 230 231 233 234 234 235 237 239 242 244 246 246 246 245 245 245 246 246 246 246 244 242 244 248 253 257 259 260
235 235 232 231 234 237 236 234 233 233 233 233 233 233 233 233 233 234 236 237 239 239 240 241 245 248 249 249 247 245 244 244 245 246 246 244 242 243 247 250 253 255
235 233 231 229 232 235 235 234 233 235 235 234 234 235 236 236 235 235 236 237 239 241 241 240 242 246 249 250 250 248 245 243 242 244 245 245 244 244 244 246 248 250
235 232 229 227 228 231 232 232 232 234 235 235 234 236 238 239 239 239 238 238 239 240 241 242 243 245 247 249 251 252 251 248 245 244 244 245 246 247 248 249 250 252
233 232 232 230 229 229 231 233 233 233 234 234 234 236 240 243 244 245 244 243 242 241 241 242 243 244 246 248 250 252 252 250 248 246 245 246 247 248 251 253 254 256
235 235 237 236 233 232 232 232 233 233 233 234 237 241 245 246 246 247 248 246 244 242 242 243 243 244 246 248 249 251 252 251 250 248 247 247 248 250 252 254 255 256
240 240 243 240 236 234 233 231 232 233 233 236 241 244 246 246 245 245 246 243 240 241 244 247 247 246 246 247 247 249 251 252 251 249 248 248 250 252 253 253 255 256
248 248 250 246 236 230 229 228 228 231 235 239 242 243 244 244 243 243 244 242 240 240 245 249 251 249 246 245 244 244 247 250 250 248 247 248 250 252 253 254 255 257
252 252 253 252 246 237 232 228 225 226 230 236 239 240 242 243 242 242 243 242 241 241 244 248 251 251 247 243 241 239 241 247 250 248 246 247 249 251 252 254 256 257
250 252 252 251 252 251 248 245 243 237 233 236 237 236 237 238 237 239 243 244 243 242 243 245 247 248 247 244 241 238 240 245 248 247 247 247 249 251 253 255 256 257
Height
5947 5948 5949 5951 5952 5953 5954 5954 5955 5955 5955 5956 5956 5956 5957 5957 5958 5959 5959 5960 5961 5962 5963 5964 5965 5966 5967 5967 5968 5969 5969 5969 5969 5970 5970 5970 5971 5971 5972 5972 5973 5974
5946 5947 5948 5950 5951 5953 5954 5955 5955 5956 5956 5956 5957 5957 5957 5958 5958 5959 5959 5960 5961 5962 5962 5963 5964 5965 5966 5967 5968 5969 5969 5970 5970 5971 5971 5971 5971 5972 5972 5973 5973 5974
5946 5947 5948 5949 5950 5952 5953 5954 5955 5956 5956 5956 5957 5957 5958 5958 5959 5959 5959 5960 5960 5961 5962 5963 5964 5964 5965 5966 5967 5968 5969 5970 5971 5971 5972 5972 5972 5973 5973 5973 5973 5974
5945 5946 5947 5948 5949 5950 5952 5953 5954 5955 5956 5957 5957 5958 5958 5959 5959 5959 5960 5960 5960 5961 5961 5962 5963 5964 5964 5965 5966 5967 5968 5969 5970 5971 5972 5972 5973 5973 5974 5974 5974 5974
5944 5945 5946 5948 5949 5950 5951 5952 5953 5955 5956 5957 5957 5958 5959 5959 5959 5960 5960 5960 5961 5961 5961 5962 5962 5963 5964 5965 5965 5966 5967 5968 5969 5970 5971 5972 5972 5973 5973 5973 5973 5973
5943 5944 5945 5947 5948 5949 5951 5952 5953 5954 5955 5956 5957 5958 5959 5959 5960 5960 5961 5961 5961 5961 5962 5962 5963 5963 5964 5964 5965 5965 5966 5967 5968 5968 5969 5970 5971 5971 5972 5972 5973 5973
5942 5943 5944 5946 5947 5949 5950 5951 5952 5953 5954 5955 5956 5957 5958 5959 5960 5960 5961 5961 5961 5962 5962 5962 5963 5963 5964 5964 5964 5965 5965 5966 5966 5967 5967 5968 5968 5969 5970 5970 5971 5971
5941 5942 5944 5945 5946 5947 5949 5950 5951 5952 5952 5953 5954 5956 5957 5958 5959 5959 5960 5961 5961 5961 5962 5962 5962 5963 5963 5963 5964 5964 5964 5964 5965 5965 5966 5966 5966 5967 5968 5968 5969 5969
5939 5940 5942 5943 5944 5945 5947 5948 5949 5950 5951 5952 5953 5954 5955 5956 5957 5958 5959 5959 5960 5961 5961 5961 5962 5962 5962 5962 5963 5963 5963 5963 5964 5964 5964 5965 5965 5965 5966 5966 5967 5967
5937 5938 5939 5940 5941 5942 5943 5944 5946 5948 5949 5950 5951 5952 5953 5954 5955 5956 5957 5958 5958 5959 5960 5960 5960 5961 5961 5961 5961 5962 5962 5962 5963 5963 5963 5963 5964 5964 5965 5965 5966 5966
5935 5936 5936 5937 5937 5939 5940 5941 5943 5945 5946 5948 5949 5950 5951 5952 5953 5954 5954 5955 5956 5957 5957 5958 5959 5959 5959 5959 5960 5960 5961 5961 5961 5962 5962 5963 5963 5963 5963 5964 5964 5965
5933 5933 5934 5934 5935 5936 5938 5939 5941 5943 5944 5946 5947 5947 5948 5949 5950 5951 5952 5953 5953 5954 5955 5956 5957 5957 5957 5958 5958 5958 5959 5959 5959 5960 5961 5961 5962 5962 5962 5962 5963 5963
5929 5930 5932 5933 5934 5935 5937 5939 5940 5942 5943 5943 5944 5945 5945 5946 5947 5948 5949 5950 5951 5952 5952 5953 5954 5955 5955 5956 5956 5956 5956 5957 5957 5958 5959 5959 5960 5961 5961 5961 5961 5962
5925 5928 5930 5932 5933 5934 5936 5937 5938 5939 5940 5940 5941 5942 5943 5944 5945 5946 5947 5949 5950 5950 5951 5951 5952 5953 5953 5953 5953 5954 5954 5955 5955 5956 5956 5957 5958 5959 5959 5959 5960 5960
5923 5925 5927 5930 5931 5932 5933 5934 5935 5936 5936 5937 5939 5940 5941 5942 5943 5944 5945 5947 5948 5949 5950 5950 5950 5950 5951 5951 5951 5952 5952 5952 5953 5954 5954 5955 5956 5956 5957 5958 5958 5959
5921 5923 5925 5927 5928 5929 5930 5931 5932 5933 5934 5935 5936 5938 5939 5940 5941 5942 5944 5945 5947 5948 5949 5949 5949 5949 5949 5949 5950 5950 5951 5951 5952 5952 5952 5953 5954 5954 5955 5956 5956 5957
5918 5920 5922 5923 5924 5925 5927 5928 5929 5930 5931 5932 5933 5934 5936 5937 5939 5940 5942 5943 5944 5945 5947 5948 5948 5947 5947 5948 5949 5949 5949 5950 5950 5951 5951 5951 5952 5952 5953 5953 5954 5955
5914 5916 5918 5920 5921 5923 5924 5925 5926 5926 5928 5929 5931 5932 5933 5934 5936 5937 5939 5940 5941 5942 5943 5944 5945 5945 5946 5947 5947 5947 5947 5947 5948 5949 5949 5950 5950 5950 5950 5951 5951 5952
5910 5912 5914 5916 5918 5919 5921 5922 5923 5924 5925 5927 5928 5930 5931 5932 5933 5934 5935 5936 5937 5939 5940 5940 5941 5942 5944 5945 5946 5946 5946 5946 5946 5946 5947 5947 5948 5948 5948 5948 5948 5949
5906 5908 5910 5912 5914 5916 5917 5918 5920 5922 5923 5924 5925 5926 5928 5929 5930 5930 5931 5932 5933 5935 5936 5937 5938 5939 5940 5942 5943 5944 5944 5945 5944 5944 5945 5945 5945 5946 5946 5946 5946 5946
5903 5905 5906 5908 5910 5912 5913 5915 5916 5918 5919 5920 5922 5924 5925 5926 5927 5928 5929 5929 5931 5932 5933 5934 5934 5935 5936 5938 5940 5941 5942 5943 5943 5942 5942 5942 5942 5943 5943 5944 5944 5945
5900 5902 5903 5905 5907 5908 5910 5911 5913 5915 5916 5918 5919 5921 5922 5923 5924 5925 5926 5927 5928 5929 5930 5930 5931 5932 5933 5934 5935 5937 5939 5940 5940 5940 5940 5940 5940 5940 5941 5941 5942 5942
5898 5900 5901 5902 5903 5904 5906 5908 5909 5911 5913 5914 5916 5917 5918 5919 5920 5921 5922 5923 5924 5925 5926 5928 5929 5930 5931 5931 5932 5933 5934 5936 5937 5938 5937 5937 5937 5938 5938 5939 5939 5939
5896 5897 5899 5899 5900 5901 5902 5903 5905 5907 5908 5910 5911 5912 5913 5914 5915 5917 5918 5919 5920 5921 5922 5923 5925 5926 5927 5928 5929 5929 5930 5932 5934 5934 5934 5934 5934 5934 5935 5936 5936 5936
5893 5894 5896 5897 5898 5899 5900 5901 5902 5903 5904 5906 5907 5908 5909 5910 5911 5913 5914 5915 5915 5916 5917 5919 5920 5922 5923 5924 5925 5926 5926 5928 5930 5931 5931 5931 5931 5931 5931 5932 5932 5933
5890 5891 5893 5893 5894 5896 5898 5899 5900 5901 5902 5903 5904 5905 5905 5906 5908 5909 5910 5911 5911 5912 5913 5914 5916 5918 5919 5921 5922 5922 5922 5924 5926 5927 5927 5927 5927 5928 5928 5929 5929 5930